(737) Arequipa
ephemeris date magn radius delta ra dec elong phase
Today16 Sep 202514.52.770 AU2.867 AU06h36m+11°41'74.4°20.5°
Opposition29 Dec 202513.32.986 AU2.036 AU06h30m+04°57'161.7°5.9°
(737) Arequipa - 2025-09-16
astro.vanbuitenen.nl


 
-1 year
-1 month
-1 day
Now
+1 day
+1 month
+1 year

The interactive orbit chart above shows the body's path through the solar system and its position at the given date. Green and blue lines are shown perpendicular to the ecliptic plane: Green if the path is above the ecliptic plane, blue if it is below. (Left-click and drag to rotate the view; Right-click and drag to move the view; Use scroll wheel to zoom in our out.)

The orbital elements of Arequipa are:

            e (Eccentricity)                : 0.2440442
            a (Semimajor axis)              : 2.5909275
            i (Inclination)                 : 12.36659
            Ω (Longitude of ascending node) : 184.60575
            ω (Argument of perihelion)      : 134.31824
            M (Mean anomaly)                : 61.39295
            Epoch                           : 2025 May 05

            L (Longitude of perihelion)     : 139.59647
            B (Latitude of perihelion)      : 8.81411
            P (Orbital period in years)     : 4.17            
        

The light curve chart below shows the estimated development of the minor planet's magnitude.


The all-sky chart below shows the path of the minor planet over the same period as the light curve. The current position is marked yellow.





The following chart shows the path of the minor planet in the next few days. The field of view is optimized for (~10x50) binoculars and finderscopes. A more printer-friendly version of the same chart can be found below.




Ephemerides:
Date       Time       RA (2000)    DEC (2000)    delta   radius  elong  phase   PA    magn
2025-09-16 00:00 UT   06 36 05.0   +11 41 23     2.867    2.770   74.4   20.5   270   14.5 
2025-09-16 03:51 UT   06 36 14.9   +11 40 36     2.865    2.771   74.5   20.5   270   14.5 
2025-09-17 00:00 UT   06 37 05.8   +11 36 31     2.856    2.773   75.1   20.5   271   14.4 
2025-09-18 00:00 UT   06 38 05.6   +11 31 36     2.845    2.775   75.8   20.6   271   14.4 
2025-09-19 00:00 UT   06 39 04.5   +11 26 39     2.835    2.777   76.5   20.6   271   14.4 
2025-09-20 00:00 UT   06 40 02.5   +11 21 39     2.824    2.780   77.2   20.6   271   14.4 
2025-09-21 00:00 UT   06 40 59.5   +11 16 37     2.813    2.782   77.9   20.7   272   14.4 
2025-09-22 00:00 UT   06 41 55.5   +11 11 32     2.802    2.784   78.6   20.7   272   14.4 
2025-09-23 00:00 UT   06 42 50.6   +11 06 25     2.791    2.786   79.4   20.7   272   14.4 
2025-09-24 00:00 UT   06 43 44.7   +11 01 15     2.780    2.789   80.1   20.8   272   14.4 
2025-09-25 00:00 UT   06 44 37.7   +10 56 03     2.769    2.791   80.8   20.8   273   14.4 
2025-09-26 00:00 UT   06 45 29.8   +10 50 49     2.758    2.793   81.6   20.8   273   14.4 
2025-09-27 00:00 UT   06 46 20.8   +10 45 34     2.747    2.796   82.3   20.8   273   14.4 
2025-09-28 00:00 UT   06 47 10.8   +10 40 16     2.736    2.798   83.1   20.8   273   14.4 
2025-09-29 00:00 UT   06 47 59.7   +10 34 56     2.725    2.800   83.8   20.8   273   14.4 
2025-09-30 00:00 UT   06 48 47.5   +10 29 35     2.714    2.802   84.6   20.8   274   14.4 
2025-10-01 00:00 UT   06 49 34.3   +10 24 12     2.702    2.805   85.4   20.8   274   14.4 
2025-10-02 00:00 UT   06 50 20.0   +10 18 47     2.691    2.807   86.1   20.8   274   14.4 
2025-10-03 00:00 UT   06 51 04.6   +10 13 21     2.680    2.809   86.9   20.8   274   14.3 
2025-10-04 00:00 UT   06 51 48.1   +10 07 53     2.669    2.812   87.7   20.8   275   14.3 
2025-10-05 00:00 UT   06 52 30.4   +10 02 24     2.657    2.814   88.4   20.8   275   14.3 
2025-10-06 00:00 UT   06 53 11.6   +09 56 54     2.646    2.816   89.2   20.8   275   14.3 
2025-10-07 00:00 UT   06 53 51.6   +09 51 23     2.635    2.818   90.0   20.8   275   14.3 
2025-10-08 00:00 UT   06 54 30.5   +09 45 51     2.623    2.820   90.8   20.7   276   14.3 
2025-10-09 00:00 UT   06 55 08.2   +09 40 17     2.612    2.823   91.6   20.7   276   14.3 
2025-10-10 00:00 UT   06 55 44.7   +09 34 43     2.601    2.825   92.4   20.7   276   14.3 
2025-10-11 00:00 UT   06 56 20.0   +09 29 09     2.590    2.827   93.2   20.6   276   14.3 
2025-10-12 00:00 UT   06 56 54.1   +09 23 33     2.578    2.829   94.0   20.6   277   14.3 
2025-10-13 00:00 UT   06 57 26.9   +09 17 57     2.567    2.832   94.8   20.6   277   14.3 
2025-10-14 00:00 UT   06 57 58.4   +09 12 21     2.556    2.834   95.7   20.5   277   14.3 
2025-10-15 00:00 UT   06 58 28.7   +09 06 44     2.544    2.836   96.5   20.5   278   14.2 
2025-10-16 00:00 UT   06 58 57.7   +09 01 07     2.533    2.838   97.3   20.4   278   14.2 


    Terminology:
            
    delta:  distance between minor planet and earth in AU
    radius: distance between minor planet and sun in AU
    magn:   magnitude (brightness) estimate    
    ra:     right ascension in hours (24h = 360deg)
    dec:    declination in degrees
    elong:  elongation in degrees (angle sun-earth-minor planet)    
    phase:  phase angle in degrees (angle sun-minor planet-earth)        
    AU:     Astronomical Unit (mean distance between earth and sun: 149597870.7 km
    

Orbital elements provided by the MPC (Minor Planet Center).
Calculations by a modified version of AAPlus, a C# implementation of the AA+ project by PJ Naughter from the algorithms presented in the book "Astronomical Algorithms" by Jean Meeus.
NGC2000 dso catalog and star labels from VizieR as provided by the Strasbourg astronomical Data Center.
Tycho2 catalog from the ESO archive.